This is the latest recevied weather packets stored in our database for station/object DG6HD-13. If no packets are shown the sender has not sent any weather packets the latest 10 day(s).
| Time | Temp. | Humidity | Pressure | Rain* | Wind** | Luminosity | Snow |
|---|---|---|---|---|---|---|---|
| 1777921949 | 16.67° C | 47% | 1013.2 hPa | - | - | - | - |
| 1777921048 | 16.67° C | 47% | 1013 hPa | - | - | - | - |
| 1777920147 | 17.22° C | 47% | 1013 hPa | - | - | - | - |
| 1777919248 | 17.22° C | 46% | 1012.9 hPa | - | - | - | - |
| 1777918345 | 17.78° C | 46% | 1012.9 hPa | - | - | - | - |
| 1777917444 | 18.33° C | 45% | 1012.9 hPa | - | - | - | - |
| 1777916544 | 18.33° C | 45% | 1012.8 hPa | - | - | - | - |
| 1777915643 | 18.89° C | 44% | 1012.8 hPa | - | - | - | - |
| 1777913841 | 19.44° C | 44% | 1012.7 hPa | - | - | - | - |
| 1777912940 | 19.44° C | 44% | 1012.7 hPa | - | - | - | - |
| 1777912040 | 20° C | 43% | 1012.6 hPa | - | - | - | - |
| 1777911139 | 20° C | 43% | 1012.6 hPa | - | - | - | - |
| 1777910238 | 20.56° C | 42% | 1012.6 hPa | - | - | - | - |
| 1777909337 | 20.56° C | 42% | 1012.6 hPa | - | - | - | - |
| 1777908436 | 21.11° C | 42% | 1012.7 hPa | - | - | - | - |
| 1777907535 | 21.11° C | 41% | 1012.7 hPa | - | - | - | - |
| 1777906635 | 21.67° C | 41% | 1012.7 hPa | - | - | - | - |
| 1777905734 | 21.67° C | 41% | 1012.7 hPa | - | - | - | - |
| 1777904833 | 21.67° C | 41% | 1012.9 hPa | - | - | - | - |
| 1777903932 | 21.67° C | 41% | 1013 hPa | - | - | - | - |
| 1777901229 | 21.67° C | 42% | 1013.1 hPa | - | - | - | - |
| 1777900327 | 21.67° C | 42% | 1013.1 hPa | - | - | - | - |
| 1777897624 | 21.11° C | 43% | 1013.2 hPa | - | - | - | - |
| 1777896724 | 20.56° C | 43% | 1013.2 hPa | - | - | - | - |
| 1777895823 | 20° C | 44% | 1013.1 hPa | - | - | - | - |
* Rain since midnight (hover to see other rain measurements)
** Current wind speed in m/s (hover to see current wind gust speed)